Location: Moscow Pond
(43.6842°N, 73.2366°W)
Time: 20:32:22
(UTC+00:00)

Helios 1A Rocket - Pass Details

Date: 08 November 2025
Orbit: 440 x 452 km, 98.3° (Epoch: 05 December)

Event Time Altitude Azimuth Distance (km) Brightness Sun altitude
Rises 10:01:58 0° 163° (SSE) 2,449 6.5 -17.6°
Reaches altitude 10° 10:03:59 10° 163° (SSE) 1,577 5.5 -17.3°
Maximum altitude 10:07:22 82° 75° (ENE) 458 2.4 -16.7°
Drops below altitude 10° 10:10:44 10° 348° (NNW) 1,578 5.0 -16.1°
Enters shadow 10:11:21 - 348° (NNW) 1,841 5.3 -16.0°
